Location: Ethel Rock
(53.4667°N, 4.5667°W)
Time: 05:04:14
(UTC+00:00)

YAOGAN 6 - Pass Details

Date: 24 October 2020
Orbit: 465 x 504 km, 97.0° (Epoch: 25 November)

Event Time Altitude Azimuth Distance (km) Brightness Sun altitude
Rises 05:58:27 0° 19° (NNE) 2,620 6.5 -10.1°
Reaches altitude 10° 06:00:41 10° 28° (NNE) 1,728 5.6 -9.8°
Maximum altitude 06:04:09 36° 96° (E) 815 4.5 -9.3°
Drops below altitude 10° 06:07:34 10° 165° (SSE) 1,703 5.6 -8.8°
Sets 06:09:44 0° 174° (S) 2,576 6.4 -8.5°
